Location: Newark
(23.1300°N, 73.6109°E)
Time: 23:00:32
(UTC+00:00)

NOAA 18 - Pass Details

Date: 25 June 2021
Orbit: 840 x 861 km, 99.0° (Epoch: 27 July)

Event Time Altitude Azimuth Distance (km) Brightness Sun altitude
Exits shadow 16:01:18 34° 65° (ENE) 1,369 6.1 -25.0°
Drops below altitude 10° 16:05:54 10° 9° (N) 2,494 8.0 -25.8°
Sets 16:08:28 0° 1° (N) 3,434 9.0 -26.2°
